Dewpoint
58 57 57 56 56 54 53 51 52 52 56 56 56 57 58 56 56 56 57 56 56 56 56 55 56 57 57 59 58 59 61 62 64
57 57 56 56 55 53 52 51 53 53 56 56 57 58 57 55 55 55 56 55 58 54 54 55 55 56 56 57 57 57 57 59 60
57 56 56 55 54 53 51 51 54 55 57 57 57 57 56 55 55 56 57 57 54 57 57 58 56 54 54 55 55 56 56 58 58
56 55 55 54 54 53 50 53 55 57 58 59 59 60 59 57 56 56 58 57 55 56 58 56 59 57 54 54 53 59 55 56 57
55 55 54 54 54 52 51 52 53 58 60 60 60 59 58 57 56 56 59 61 59 60 59 58 57 56 56 54 58 53 60 60 58
54 54 53 53 52 51 51 52 56 60 59 59 58 57 57 56 54 54 56 57 59 59 58 58 58 57 57 57 55 54 57 55 55
54 54 52 53 54 53 51 52 55 56 56 57 56 56 57 57 58 57 55 54 59 60 60 59 57 59 59 58 55 56 56 57 60
51 50 49 48 45 44 46 45 48 51 53 54 54 55 55 55 56 55 55 60 61 60 59 59 59 58 58 57 59 59 59 58 57
45 42 41 41 40 42 43 43 47 50 51 52 52 52 53 54 54 55 56 57 60 60 58 57 57 56 59 60 57 56 56 55 55
42 42 41 39 39 41 43 44 48 48 48 50 50 49 49 52 53 54 56 56 58 61 60 59 60 59 57 56 56 54 53 53 53
43 42 39 37 38 41 44 45 47 46 45 45 44 42 43 47 50 52 54 56 57 59 61 59 58 57 57 56 53 52 51 51 51
43 40 38 37 38 41 43 44 44 44 43 42 40 41 42 43 44 49 51 53 56 57 58 58 57 57 55 53 51 50 50 50 50
42 39 38 37 37 40 44 43 43 43 43 42 41 41 42 42 43 45 49 51 52 55 56 54 51 50 52 53 52 52 50 50 50
42 39 38 38 38 41 44 43 42 42 41 41 40 40 40 40 41 43 48 51 51 51 53 54 55 54 52 49 49 50 50 50 50
42 40 38 39 38 41 42 43 44 43 41 40 41 40 39 39 39 41 45 48 48 48 48 49 52 52 51 50 50 48 48 47 49
42 39 39 39 38 39 42 43 43 44 44 43 42 42 43 40 38 39 41 46 47 46 46 46 46 48 49 49 49 49 48 49 51
42 40 39 39 38 38 41 43 43 44 45 42 41 39 41 41 38 38 38 41 46 45 43 43 43 44 45 47 48 48 48 47 46
42 41 40 39 39 38 41 43 43 43 44 44 41 37 37 40 40 35 36 37 44 44 43 40 39 40 43 45 46 43 40 40 43
43 42 41 39 40 39 40 42 43 44 43 42 40 40 40 39 37 35 35 36 43 44 41 39 39 40 44 45 40 38 36 38 40
44 42 41 40 40 39 40 40 42 44 42 43 38 35 36 38 37 32 33 35 39 43 39 40 38 40 43 40 37 34 33 33 35
Wind_Speed
18 18 16 15 14 14 14 15 15 15 19 17 17 17 17 16 13 11 9 9 13 14 14 15 15 15 15 14 15 16 15 15 18
17 17 17 16 15 14 14 15 15 17 18 17 17 16 15 14 12 10 8 11 15 14 14 14 14 14 14 15 15 16 16 15 14
17 16 16 16 15 15 15 16 16 17 18 17 18 16 14 13 11 8 10 12 15 14 13 13 12 12 14 15 15 15 15 16 16
17 16 16 15 15 15 17 19 19 17 18 17 16 14 12 10 8 8 10 14 14 14 16 14 14 15 15 13 14 16 15 15 17
16 15 15 15 15 16 18 19 18 20 18 17 15 13 12 9 11 11 10 11 15 13 19 16 14 14 15 15 16 15 19 19 20
14 12 14 15 17 18 20 18 18 20 18 16 15 14 10 10 11 10 10 16 16 15 14 14 13 14 16 17 17 16 16 20 17
13 13 13 15 15 17 18 16 17 17 14 13 14 13 13 13 9 10 15 12 12 12 13 14 16 14 18 19 18 17 18 17 17
12 9 11 11 10 9 12 13 16 15 15 13 14 13 14 12 11 12 13 15 16 18 17 18 17 19 18 18 18 19 20 21 22
14 12 10 10 8 11 14 15 17 15 14 16 14 13 13 12 14 14 11 11 17 16 18 17 17 18 19 21 22 21 20 19 20
14 12 9 9 10 11 14 18 17 18 15 13 14 13 12 12 13 13 17 15 15 15 17 19 22 22 23 22 20 17 18 18 19
15 13 11 11 11 12 15 14 17 17 16 15 14 12 12 12 11 11 13 17 13 14 16 20 21 21 21 18 16 16 16 17 18
16 15 14 13 12 14 14 12 15 17 14 17 15 14 12 13 12 10 11 13 16 15 15 19 21 20 19 17 16 16 16 17 17
16 16 16 14 15 17 17 15 14 16 15 15 12 13 11 11 11 10 10 11 12 14 18 16 14 14 18 17 17 17 16 15 15
17 16 15 15 16 16 16 12 15 16 15 14 13 10 11 9 8 10 10 9 10 11 15 20 19 18 17 15 16 16 15 15 15
16 16 16 15 16 16 15 17 11 13 15 13 13 10 8 8 9 9 8 9 10 11 15 16 16 19 15 15 15 14 13 13 14
18 17 17 16 18 18 18 14 19 13 13 13 13 9 6 7 7 7 8 9 9 11 12 13 14 14 16 15 14 13 13 13 13
19 20 19 19 18 20 21 17 13 9 14 10 8 6 2 4 3 5 7 9 8 10 11 13 13 12 11 12 14 14 14 12 12
15 16 16 17 17 20 19 21 19 22 11 15 6 6 6 8 0 3 5 9 10 9 10 11 11 10 10 11 13 14 14 12 11
14 17 16 16 14 16 19 18 16 18 20 9 2 2 7 6 6 1 2 5 9 12 9 10 9 9 9 11 12 13 13 12 11
15 16 17 17 15 15 17 18 18 16 16 16 6 3 3 5 5 7 7 5 5 7 11 10 8 9 9 8 10 11 11 10 9
Wind_Direction
122 121 118 113 109 105 101 100 99 101 105 100 94 92 90 85 78 75 71 79 82 80 72 70 68 63 61 59 63 58 55 53 56
126 125 123 119 114 109 103 103 103 105 107 101 97 92 90 92 85 83 81 88 82 79 76 76 77 75 72 68 58 54 57 57 56
131 128 125 122 118 114 111 111 105 105 109 102 102 99 94 93 94 86 85 88 91 87 87 81 69 79 66 67 69 66 58 59 62
134 131 128 125 122 119 121 121 112 111 109 103 101 94 94 102 110 96 99 106 101 98 94 87 70 82 79 79 73 62 78 71 66
132 130 131 129 127 125 125 119 116 119 111 107 98 90 85 81 82 89 82 109 100 99 96 89 85 84 89 85 78 70 67 78 69
123 131 131 131 129 127 123 113 116 116 108 102 94 86 79 79 77 96 85 93 86 81 85 86 91 94 97 95 83 80 75 67 70
135 134 134 131 120 122 119 107 114 111 105 98 92 90 81 73 71 98 107 99 88 98 99 96 96 98 97 91 86 82 83 78 71
132 127 123 121 116 110 110 110 119 115 113 104 96 87 81 76 63 81 98 80 100 106 99 88 101 86 86 86 84 81 79 74 67
138 136 134 129 124 118 120 121 126 116 111 111 99 87 80 72 66 56 63 73 75 110 106 104 102 96 92 88 75 68 70 67 66
146 143 143 137 133 125 129 130 129 122 116 111 107 95 83 72 65 56 44 39 56 86 108 108 101 97 85 76 73 73 68 67 65
152 149 149 141 143 133 132 134 133 128 121 115 108 102 94 84 75 63 50 45 44 66 98 103 96 89 86 82 79 75 74 72 68
158 154 157 154 149 135 125 120 121 121 117 117 112 106 96 90 82 75 64 53 44 57 75 91 89 90 88 88 86 79 75 69 70
161 159 161 157 148 141 139 137 125 127 128 126 118 113 106 100 89 84 78 70 57 49 55 66 93 98 95 89 86 81 78 71 64
164 166 162 155 149 146 145 141 136 133 128 124 123 116 114 111 107 95 88 80 76 68 60 58 67 90 93 93 88 86 78 68 64
166 163 162 158 150 149 149 145 131 137 132 119 111 107 104 110 111 113 106 95 82 75 70 65 56 67 84 87 85 80 74 66 57
169 165 165 167 162 161 153 140 143 138 132 117 98 80 87 97 108 121 125 115 101 92 87 83 76 67 71 72 72 71 69 61 57
175 173 175 175 165 162 161 156 144 151 165 148 120 127 95 80 95 126 132 137 132 112 100 96 90 85 80 77 68 60 53 47 43
182 178 175 180 171 171 174 166 163 166 191 176 145 149 182 146 68 141 139 144 147 132 120 111 104 97 87 74 65 59 51 40 46
189 181 181 179 181 181 177 178 170 160 176 185 172 122 140 161 164 176 129 136 148 149 136 129 113 102 94 80 70 60 49 42 40
189 187 187 187 186 187 179 183 177 178 179 180 160 141 97 121 142 163 173 119 123 152 151 140 119 105 98 89 77 66 53 40 31